Regional Weather Roundup
Issued by NWS

Home | Current Version | Previous Version | Text Only | Print | Product List | Glossary Off
Versions: 1 2 3 4 5 6 7 8 9 10 11 12 13 14 15 16 17 18 19 20 21 22 23 24 25 26 27

000
ASUS45 KBOI 241910
RWRID

IDAHO REGIONAL WEATHER ROUNDUP
NATIONAL WEATHER SERVICE BOISE ID
100 PM MDT WED AUG 24 2016

NOTE: "FAIR" INDICATES FEW OR NO CLOUDS BELOW 12000 FEET
WITH NO SIGNIFICANT WEATHER AND/OR OBSTRUCTIONS TO VISIBILITY

IDZ012-014-242000-
SOUTHWEST IDAHO


CITY           SKY/WX    TMP DP  RH WIND       PRES   REMARKS
BOISE          SUNNY     76  38  25 NW10      30.15F
CALDWELL       SUNNY     78  40  25 W12G17    30.14F
MOUNTAIN HOME  SUNNY     79  34  19 NW14G22   30.13F
$$

IDZ016-017-242000-
SOUTHCENTRAL IDAHO


CITY           SKY/WX    TMP DP  RH WIND       PRES   REMARKS
BURLEY         SUNNY     68  38  33 N6        30.18F
JEROME         SUNNY     67  38  34 VRB5      30.20S
TWIN FALLS     SUNNY     71  37  28 W14       30.19F
$$

IDZ019>023-242000-
SOUTHEAST IDAHO


CITY           SKY/WX    TMP DP  RH WIND       PRES   REMARKS
IDAHO FALLS    MOSUNNY   70  33  25 NE6       30.18F
POCATELLO      SUNNY     69  31  24 S8        30.19S
REXBURG        SUNNY     72  33  24 NE6       30.17F
$$

IDZ006-010-011-018-031-032-242000-
CENTRAL IDAHO MOUNTAINS


CITY           SKY/WX    TMP DP  RH WIND       PRES   REMARKS
MCCALL         SUNNY     69  34  27 SW6       30.22F
HAILEY         SUNNY     68  37  32 SE10      30.22F
STANLEY          N/A     68  27  21 NE9       30.25F
SALMON         SUNNY     68  36  30 W6        30.22F
CHALLIS        SUNNY     70  30  22 NE5       30.20F
$$

IDZ002-004-006-007-026-242000-
NORTHERN IDAHO


CITY           SKY/WX    TMP DP  RH WIND       PRES   REMARKS
LEWISTON       SUNNY     77  43  29 NW5       30.18F
LOWELL           N/A     75  44  33 N3        30.16F
COEUR D`ALENE  SUNNY     75  46  35 NE5       30.21F
MULLAN PASS    SUNNY     62  39  42 VRB3      30.37S
$$




USA.gov is the U.S. government's official web portal to all federal, state and local government web resources and services.